Location: Puketoi
(40.5833°S, 176.0167°E)
Time: 00:49:25
(UTC+00:00)

Cosmos 1455 Rocket - Pass Details

Date: 08 February 2023
Orbit: 604 x 628 km, 82.5° (Epoch: 30 March)

Event Time Altitude Azimuth Distance (km) Brightness Sun altitude
Rises 16:30:11 0° 188° (S) 2,951 6.9 -11.5°
Reaches altitude 10° 16:32:26 10° 187° (S) 2,037 6.0 -11.1°
Maximum altitude 16:36:59 88° 97° (E) 644 3.1 -10.4°
Drops below altitude 10° 16:41:27 10° 7° (N) 2,012 5.5 -9.6°
Sets 16:43:40 0° 6° (N) 2,910 6.3 -9.3°
